LAOSAT 1

Last updated on Thu Nov 06 2025 00:02:48 GMT+0000 (Coordinated Universal Time)

1 41034U 15067A 25308.91804536 -.00000330 00000+0 00000+0 0 9990 2 41034 0.0635 75.8425 0001775 100.0094 327.5924 1.00272525 36615
UTC large
Height (km)
Speed (km/s)
/
Latitude / Longitude
Inclination (degrees)
Orbital Period (minutes)
Azimuth
Elevation
Range (km)
Doppler Factor

Next 0 passes for location: London (51.5072 / 0.1276)

Sorry there are no passes over London.